Regional Weather Roundup
Issued by NWS Glasgow, MT

Home | Current Version | Previous Version | Text Only | Print | Product List | Glossary On
Versions: 1 2 3 4 5 6 7 8 9 10 11 12 13 14 15 16 17 18 19 20 21 22 23 24 25 26 27 28 29 30 31 32 33 34 35 36 37 38 39 40 41 42 43 44 45 46 47 48 49 50
000
ASUS45 KGGW 012115
RWRGGW
HOURLY REGIONAL WEATHER ROUNDUP FOR NORTHEAST MONTANA
NATIONAL WEATHER SERVICE GLASGOW MONTANA
300 PM MDT SAT AUG 01 2015

NOTE: "FAIR" INDICATES FEW OR NO CLOUDS BELOW 12,000 FEET WITH NO
SIGNIFICANT WEATHER AND/OR OBSTRUCTIONS TO VISISBILITY.

NORTHEAST MONTANA


CITY           SKY/WX    TMP DP  RH WIND       PRES   REMARKS
GLASGOW        SUNNY     96  34  11 W15G26    29.82F
PLENTYWOOD       N/A     93  35  13 W9G24       N/A
WOLF POINT     SUNNY    100  39  12 NW20G26   29.79S
JORDAN           N/A     98  32  10 W21G28    29.87F
WINNETT          N/A     96  29   9 W12         N/A
SIDNEY         SUNNY    N/A N/A N/A S14G21    29.77F
GLENDIVE         N/A    N/A N/A N/A MISG        N/A
MALTA            N/A     96  41  15 W10         N/A
SCOBEY           N/A     93  43  17 W17G24    29.81S

FORT PECK REPORTS


CITY           SKY/WX    TMP DP  RH WIND       PRES   REMARKS
FORT PECK        N/A     96  37  12 W16G26      N/A
THE PINES        N/A     98  27   8 N12G22      N/A

SOUTHEAST MONTANA


CITY           SKY/WX    TMP DP  RH WIND       PRES   REMARKS
BILLINGS       PTSUNNY   96  23   7 W13G21    29.98F
MILES CITY     SUNNY    100  32   9 NW9G21    29.86F
BAKER          SUNNY     97  33  10 NW10G26   29.90F
LIVINGSTON     SUNNY     94  30  10 W20G30    30.07F

CENTRAL MONTANA


CITY           SKY/WX    TMP DP  RH WIND       PRES   REMARKS
HAVRE          SUNNY     96  35  11 N9        29.85S
LEWISTOWN      SUNNY     93  29  10 NW13G26   30.00F
GREAT FALLS    SUNNY     96  27   8 NW9       29.95F
CUT BANK       SUNNY     91  25   9 W21       29.96F
HELENA         SUNNY     95  36  12 NW16      30.00F
BUTTE          SUNNY     86  31  13 W12G17    30.15F
BOZEMAN        SUNNY     91  32  12 VRB3      30.07F

WESTERN MONTANA


CITY           SKY/WX    TMP DP  RH WIND       PRES   REMARKS
MISSOULA       SUNNY     92  35  13 SW6       29.97F
KALISPELL      NOT AVBL

NORTH DAKOTA


CITY           SKY/WX    TMP DP  RH WIND       PRES   REMARKS
WILLISTON      SUNNY     95  44  17 S8        29.78F
DICKINSON      SUNNY     92  38  15 VRB3      29.86F
MINOT          SUNNY     89  45  21 S6        29.80F
BISMARCK       SUNNY     89  59  36 VRB7      29.82F

SOUTHERN SASKATCHEWAN


CITY           SKY/WX    TMP DP  RH WIND       PRES   REMARKS
REGINA         MOSUNNY   84  59  42 N16       29.81R
ESTEVAN        NOT AVBL
SWIFT CURRENT  SUNNY     81  54  39 NE21G26   29.90R




USA.gov is the U.S. government's official web portal to all federal, state and local government web resources and services.